Showing default

INTELSAT 1-F1, 1317

Orbit data source: Space-Track

INTELSAT 1-F1, 1317 is a payload satellite owned by INTELSAT (US) in GEO that was launched on Tue, 06 Apr 1965 UTC via a THOR DELTA D launch vehicle from the Air Force Eastern Test Range (AFETR). Payload-class satellites include a variety of spacecraft equipped with specific instruments for various scientific and technological missions. These include communications satellites like Starlink; space stations such as the ISS; scientific satellites like the Hubble; Earth observation satellites from companies like Planet Labs, Umbra, and HawkEye 360; GPS; miniature CubeSats for education and research; and military/defense satellites.

Loading next visibility...
Identifier
1317, 1965-028A
Orbit
GEO
Country
Flag of USUS / ITSO
Related business
Manufacturer
Hughes
Mission
Non-operational spacecraft
Bus & Motor
HS-303A, STARFINDER
Mass
68 kg wet, 30 kg dry
Launch date (UTC)
1965-04-06 (61 years ago)
Launch vehicle
THOR DELTA D
Launch site
Air Force Eastern Test Range (AFETR)
Object type
Payload
Rocket body
Debris
Shape & HBR
Unknown
Radar Cross Section
Large (>1 m²)

Expand to show TLE details & history
Last TLE update: 16 hours ago

TLE from 16 hours ago
0 INTELSAT 1-F1
1  1317U 65028A   26178.21083522  .00000058  00000-0  00000+0 0  9992
2  1317   7.1801  63.6282 0006407 142.9078  17.5314  1.00188209127275
Epoch: 2026-06-27T05:03Z
TLE epoch observation values (Epoch: 2026-06-27T05:03:36.163Z)
Latitude
2.38562°
Longitude
-126.98495°
Altitude
35,783.557 km
Speed
3.076 km/s
True Right ascension
14h 56m 58s
True Declination
2° 22' 60"
Sunlit
Object was in daylight at epoch
Visualization orbit readout
Latitude
Unknown
Longitude
Unknown
Altitude
Unknown
Speed
Unknown
Apparent Right ascension
Unknown
Apparent Declination
Unknown
Sunlit
N/A
Visualization observer readout
Local Sidereal Time
08:26:57
Azimuth
Unknown
Elevation
Unknown
Doppler factor
Unknown
Orbital elements
Apogee altitude
35,838.117 km
Perigee altitude
35,784.055 km
Semi-major axis
42,189.223 km
Eccentricity
0.00064
Inclination
7.1801°
RAAN
63.6282°
Arg. of periapsis
142.9078°
True anomaly
17.55353°
Mean anomaly
17.5314°
Eccentric anomaly
17.54246°
Mean motion
0.25046 °/min
Orbital period
1,437.35 mins
BSTAR
0
Loading maneuver chart data...
Computing Atmospheric mass density...
Loading historical data...
Loading historical data...
Loading historical data...
Loading historical data...
Loading historical data...
Loading historical data...
Loading historical data...
Other satellites on launch #28 in the year 1965 (1965-04-06 UTC)

Documentation

Showing up to 5 results
|